Photometre #718[NE_1.6] Antikythera_NOA AOT

File : 20200927_718.hum

27/09/2020,05:03:37,TEMP=22.4,BA=5.52,STAT.A=1.0,ExtBa=11.53
27/09/2020,05:06:21,TEMP=22.6,BA=5.52,STAT.D=1.0,ExtBa=11.44
27/09/2020,05:08:16,TEMP=22.8,BA=5.52,STAT.A=1.0,ExtBa=11.43
27/09/2020,05:10:30,TEMP=22.8,BA=5.40,STAT.A=1.0,ExtBa=11.41
27/09/2020,05:14:55,TEMP=22.7,BA=5.40,STAT.A=1.0,ExtBa=11.45
27/09/2020,05:20:14,TEMP=22.6,BA=5.44,STAT.A=1.0,ExtBa=11.52
27/09/2020,05:24:21,TEMP=22.7,BA=5.44,STAT.D=1.0,ExtBa=11.46
27/09/2020,05:26:47,TEMP=22.9,BA=5.44,STAT.A=1.0,ExtBa=11.58
27/09/2020,05:30:21,TEMP=23.0,BA=5.52,STAT.D=1.0,ExtBa=11.66
27/09/2020,05:33:21,TEMP=23.2,BA=5.52,STAT.D=1.0,ExtBa=11.68
27/09/2020,05:35:36,TEMP=23.5,BA=5.52,STAT.B=1.0,ExtBa=11.62
27/09/2020,05:45:48,TEMP=24.1,BA=5.36,STAT.A=1.0,ExtBa=11.61
27/09/2020,05:47:53,TEMP=24.4,BA=5.36,STAT.A=1.0,ExtBa=11.64
27/09/2020,05:49:58,TEMP=24.6,BA=5.36,STAT.A=1.0,ExtBa=11.66
27/09/2020,05:54:05,TEMP=24.6,BA=5.36,STAT.A=1.0,ExtBa=11.74
27/09/2020,05:57:21,TEMP=24.8,BA=5.36,STAT.D=1.0,ExtBa=11.79
27/09/2020,06:00:21,TEMP=24.9,BA=5.52,STAT.D=1.0,ExtBa=11.74
27/09/2020,06:02:20,TEMP=25.1,BA=5.52,STAT.C=1.0,ExtBa=11.58
27/09/2020,06:08:06,TEMP=24.6,BA=5.52,STAT.A=1.0,ExtBa=11.81
27/09/2020,06:12:22,TEMP=24.6,BA=5.48,STAT.D=1.0,ExtBa=11.86
27/09/2020,06:15:22,TEMP=24.8,BA=5.48,STAT.D=1.0,ExtBa=11.88
27/09/2020,06:17:18,TEMP=25.1,BA=5.48,STAT.A=1.0,ExtBa=11.88
27/09/2020,06:21:20,TEMP=24.9,BA=5.40,STAT.D=1.0,ExtBa=11.91
27/09/2020,06:24:22,TEMP=25.1,BA=5.40,STAT.D=1.0,ExtBa=11.92
27/09/2020,06:27:22,TEMP=25.2,BA=5.40,STAT.D=1.0,ExtBa=11.93
27/09/2020,06:29:18,TEMP=25.6,BA=5.40,STAT.A=1.0,ExtBa=11.93
27/09/2020,06:33:22,TEMP=25.3,BA=5.40,STAT.D=1.0,ExtBa=11.74
27/09/2020,06:40:28,TEMP=25.1,BA=5.52,STAT.A=1.0,ExtBa=11.94
27/09/2020,06:45:22,TEMP=25.4,BA=5.52,STAT.D=1.0,ExtBa=11.97
27/09/2020,06:48:22,TEMP=25.7,BA=5.52,STAT.D=1.0,ExtBa=11.94
27/09/2020,06:51:22,TEMP=25.7,BA=5.48,STAT.D=1.0,ExtBa=11.75
27/09/2020,06:56:43,TEMP=25.1,BA=5.48,STAT.B=1.0,ExtBa=11.86
27/09/2020,07:06:26,TEMP=25.2,BA=5.40,STAT.D=1.0,ExtBa=11.80
27/09/2020,07:09:22,TEMP=25.5,BA=5.40,STAT.D=1.0,ExtBa=11.87
27/09/2020,07:12:22,TEMP=25.7,BA=5.40,STAT.D=1.0,ExtBa=11.75
27/09/2020,07:18:06,TEMP=25.6,BA=5.40,STAT.F,ExtBa=11.94
27/09/2020,07:33:02,TEMP=25.3,BA=5.40,STAT.D=1.5,ExtBa=11.89
27/09/2020,07:36:22,TEMP=25.8,BA=5.40,STAT.D=1.0,ExtBa=11.91
27/09/2020,07:39:22,TEMP=26.0,BA=5.40,STAT.D=1.0,ExtBa=11.76
27/09/2020,07:48:04,TEMP=25.3,BA=5.40,STAT.D=1.0,ExtBa=11.88
27/09/2020,07:51:21,TEMP=25.5,BA=5.40,STAT.D=1.0,ExtBa=11.90
27/09/2020,07:54:22,TEMP=25.7,BA=5.40,STAT.D=1.0,ExtBa=11.92
27/09/2020,07:57:22,TEMP=26.0,BA=5.40,STAT.D=1.0,ExtBa=11.81
27/09/2020,08:03:04,TEMP=26.0,BA=5.52,STAT.D=1.0,ExtBa=11.77
27/09/2020,08:15:23,TEMP=25.5,BA=5.52,STAT.D=1.0,ExtBa=11.84
27/09/2020,08:18:06,TEMP=25.7,BA=5.52,STAT.F,ExtBa=11.89
27/09/2020,08:33:09,TEMP=26.3,BA=5.40,STAT.D=1.0,ExtBa=11.70
27/09/2020,08:36:23,TEMP=26.3,BA=5.40,STAT.D=1.5,ExtBa=11.80
27/09/2020,08:39:23,TEMP=26.5,BA=5.40,STAT.D=1.0,ExtBa=11.82
27/09/2020,08:42:23,TEMP=26.5,BA=5.40,STAT.D=1.0,ExtBa=11.80
27/09/2020,08:45:23,TEMP=26.5,BA=5.40,STAT.D=1.0,ExtBa=11.82
27/09/2020,08:48:05,TEMP=26.5,BA=5.40,STAT.D=1.0,ExtBa=11.83
27/09/2020,08:51:23,TEMP=26.6,BA=5.44,STAT.D=1.5,ExtBa=11.78
27/09/2020,08:54:23,TEMP=26.7,BA=5.44,STAT.D=1.5,ExtBa=11.82
27/09/2020,08:57:23,TEMP=26.7,BA=5.44,STAT.D=1.0,ExtBa=11.85
27/09/2020,09:00:23,TEMP=26.8,BA=5.48,STAT.D=1.5,ExtBa=11.85
27/09/2020,09:03:05,TEMP=26.9,BA=5.48,STAT.D=1.0,ExtBa=11.85
27/09/2020,09:06:23,TEMP=26.7,BA=5.48,STAT.D=1.5,ExtBa=11.85
27/09/2020,09:09:23,TEMP=26.8,BA=5.48,STAT.D=1.5,ExtBa=11.85
27/09/2020,09:12:23,TEMP=27.0,BA=5.40,STAT.D=1.5,ExtBa=11.85
27/09/2020,09:15:23,TEMP=27.1,BA=5.40,STAT.D=1.5,ExtBa=11.85
27/09/2020,09:18:06,TEMP=27.3,BA=5.40,STAT.F,ExtBa=11.84
27/09/2020,09:33:51,TEMP=27.6,BA=5.36,STAT.D=1.5,ExtBa=11.62
27/09/2020,09:45:23,TEMP=27.3,BA=5.48,STAT.D=1.5,ExtBa=11.76
27/09/2020,09:48:05,TEMP=27.7,BA=5.48,STAT.D=1.5,ExtBa=11.75
27/09/2020,09:51:23,TEMP=27.6,BA=5.44,STAT.D=1.5,ExtBa=11.76
27/09/2020,09:54:23,TEMP=27.6,BA=5.44,STAT.D=1.5,ExtBa=11.75
27/09/2020,09:57:23,TEMP=27.6,BA=5.44,STAT.D=1.5,ExtBa=11.74
27/09/2020,10:00:23,TEMP=27.6,BA=5.48,STAT.D=1.5,ExtBa=11.74
27/09/2020,10:03:05,TEMP=27.8,BA=5.48,STAT.D=1.5,ExtBa=11.74
27/09/2020,10:06:23,TEMP=27.8,BA=5.48,STAT.D=1.5,ExtBa=11.73
27/09/2020,10:09:23,TEMP=27.8,BA=5.48,STAT.D=1.5,ExtBa=11.73
27/09/2020,10:12:23,TEMP=27.8,BA=5.40,STAT.D=1.5,ExtBa=11.73
27/09/2020,10:15:23,TEMP=27.8,BA=5.40,STAT.D=1.5,ExtBa=11.72
27/09/2020,10:18:07,TEMP=27.8,BA=5.40,STAT.F,ExtBa=11.71
27/09/2020,10:27:23,TEMP=27.7,BA=5.40,STAT.D=1.5,ExtBa=11.65
27/09/2020,10:30:23,TEMP=27.9,BA=5.48,STAT.D=1.5,ExtBa=11.64
27/09/2020,10:33:05,TEMP=27.8,BA=5.48,STAT.D=1.5,ExtBa=11.65
27/09/2020,10:36:23,TEMP=27.9,BA=5.48,STAT.D=1.5,ExtBa=11.67
27/09/2020,10:39:23,TEMP=28.2,BA=5.48,STAT.D=1.5,ExtBa=11.68
27/09/2020,10:42:23,TEMP=28.4,BA=5.40,STAT.D=1.5,ExtBa=11.67
27/09/2020,10:45:23,TEMP=28.6,BA=5.40,STAT.D=1.5,ExtBa=11.65
27/09/2020,10:48:05,TEMP=28.6,BA=5.40,STAT.D=1.5,ExtBa=11.63
27/09/2020,10:51:23,TEMP=28.3,BA=5.44,STAT.D=1.5,ExtBa=11.61
27/09/2020,11:03:05,TEMP=27.0,BA=5.48,STAT.D=1.5,ExtBa=11.64
27/09/2020,11:06:23,TEMP=26.9,BA=5.48,STAT.D=1.5,ExtBa=11.62
27/09/2020,11:09:23,TEMP=26.9,BA=5.48,STAT.D=1.5,ExtBa=11.61
27/09/2020,11:12:23,TEMP=27.1,BA=5.40,STAT.D=1.5,ExtBa=11.61
27/09/2020,11:15:23,TEMP=27.2,BA=5.40,STAT.D=1.5,ExtBa=11.60
27/09/2020,11:18:06,TEMP=27.3,BA=5.40,STAT.F,ExtBa=11.59
27/09/2020,11:33:12,TEMP=27.2,BA=5.40,STAT.D=1.5,ExtBa=11.53
27/09/2020,11:36:23,TEMP=27.2,BA=5.40,STAT.D=1.5,ExtBa=11.54
27/09/2020,11:39:23,TEMP=27.2,BA=5.40,STAT.D=1.5,ExtBa=11.54
27/09/2020,11:42:23,TEMP=27.2,BA=5.40,STAT.D=1.5,ExtBa=11.53
27/09/2020,11:45:23,TEMP=27.2,BA=5.40,STAT.D=1.5,ExtBa=11.53
27/09/2020,11:48:05,TEMP=27.2,BA=5.40,STAT.D=1.5,ExtBa=11.53
27/09/2020,11:51:23,TEMP=27.2,BA=5.44,STAT.D=1.5,ExtBa=11.53
27/09/2020,11:54:23,TEMP=27.3,BA=5.44,STAT.D=1.5,ExtBa=11.52
27/09/2020,11:57:23,TEMP=27.3,BA=5.44,STAT.D=1.5,ExtBa=11.52
27/09/2020,12:00:23,TEMP=27.3,BA=5.48,STAT.D=1.5,ExtBa=11.52
27/09/2020,12:03:05,TEMP=27.3,BA=5.48,STAT.D=1.5,ExtBa=11.51
27/09/2020,12:06:23,TEMP=27.1,BA=5.48,STAT.D=1.5,ExtBa=11.51
27/09/2020,12:09:23,TEMP=27.2,BA=5.48,STAT.D=1.5,ExtBa=11.51
27/09/2020,12:12:22,TEMP=27.3,BA=5.40,STAT.D=1.5,ExtBa=11.50
27/09/2020,12:15:23,TEMP=27.3,BA=5.40,STAT.D=1.5,ExtBa=11.50
27/09/2020,12:18:06,TEMP=27.5,BA=5.40,STAT.F,ExtBa=11.49
27/09/2020,12:33:15,TEMP=27.2,BA=5.36,STAT.D=1.5,ExtBa=11.45
27/09/2020,12:36:22,TEMP=27.2,BA=5.36,STAT.D=1.5,ExtBa=11.46
27/09/2020,12:39:22,TEMP=27.2,BA=5.36,STAT.D=1.5,ExtBa=11.46
27/09/2020,12:42:22,TEMP=27.3,BA=5.40,STAT.D=1.5,ExtBa=11.46
27/09/2020,12:45:22,TEMP=27.2,BA=5.40,STAT.D=1.5,ExtBa=11.45
27/09/2020,12:48:04,TEMP=27.2,BA=5.40,STAT.D=1.5,ExtBa=11.45
27/09/2020,12:51:22,TEMP=27.1,BA=5.44,STAT.D=1.5,ExtBa=11.45
27/09/2020,12:54:22,TEMP=27.2,BA=5.44,STAT.D=1.5,ExtBa=11.45
27/09/2020,12:57:22,TEMP=27.2,BA=5.44,STAT.D=1.5,ExtBa=11.45
27/09/2020,13:00:22,TEMP=27.1,BA=5.48,STAT.D=1.5,ExtBa=11.45
27/09/2020,13:03:04,TEMP=27.1,BA=5.48,STAT.D=1.5,ExtBa=11.44
27/09/2020,13:06:22,TEMP=27.1,BA=5.48,STAT.D=1.5,ExtBa=11.44
27/09/2020,13:09:22,TEMP=27.1,BA=5.48,STAT.D=1.5,ExtBa=11.44
27/09/2020,13:12:22,TEMP=27.2,BA=5.40,STAT.D=1.5,ExtBa=11.43
27/09/2020,13:15:22,TEMP=27.2,BA=5.40,STAT.D=1.5,ExtBa=11.43
27/09/2020,13:18:06,TEMP=27.3,BA=5.40,STAT.F,ExtBa=11.43
27/09/2020,13:33:17,TEMP=26.7,BA=5.36,STAT.D=1.5,ExtBa=11.40
27/09/2020,13:36:22,TEMP=26.8,BA=5.36,STAT.D=1.5,ExtBa=11.41
27/09/2020,13:39:22,TEMP=26.9,BA=5.36,STAT.D=1.5,ExtBa=11.40
27/09/2020,13:41:18,TEMP=27.1,BA=5.40,STAT.B=1.0,ExtBa=11.39
27/09/2020,13:51:22,TEMP=26.6,BA=5.36,STAT.D=1.5,ExtBa=11.38
27/09/2020,13:54:22,TEMP=26.8,BA=5.36,STAT.D=1.5,ExtBa=11.38
27/09/2020,13:56:20,TEMP=27.0,BA=5.36,STAT.A=1.0,ExtBa=11.38
27/09/2020,14:00:22,TEMP=26.8,BA=5.48,STAT.D=1.5,ExtBa=11.39
27/09/2020,14:03:22,TEMP=26.8,BA=5.48,STAT.D=1.5,ExtBa=11.38
27/09/2020,14:06:22,TEMP=26.7,BA=5.48,STAT.D=1.5,ExtBa=11.38
27/09/2020,14:08:38,TEMP=26.9,BA=5.48,STAT.A=1.0,ExtBa=11.37
27/09/2020,14:12:20,TEMP=26.6,BA=5.40,STAT.D=1.5,ExtBa=11.38
27/09/2020,14:15:22,TEMP=26.6,BA=5.40,STAT.D=1.5,ExtBa=11.37
27/09/2020,14:18:22,TEMP=26.5,BA=5.40,STAT.D=1.0,ExtBa=11.37
27/09/2020,14:20:18,TEMP=26.6,BA=5.40,STAT.A=1.0,ExtBa=11.36
27/09/2020,14:24:21,TEMP=26.1,BA=5.40,STAT.D=1.5,ExtBa=11.37
27/09/2020,14:27:22,TEMP=26.0,BA=5.40,STAT.D=1.0,ExtBa=11.37
27/09/2020,14:29:18,TEMP=26.2,BA=5.40,STAT.A=1.0,ExtBa=11.36
27/09/2020,14:33:21,TEMP=25.7,BA=5.36,STAT.D=1.0,ExtBa=11.37
27/09/2020,14:35:35,TEMP=25.7,BA=5.36,STAT.C=1.0,ExtBa=11.35
27/09/2020,14:51:11,TEMP=25.7,BA=5.36,STAT.A=1.0,ExtBa=11.34
27/09/2020,14:53:16,TEMP=25.9,BA=5.36,STAT.A=1.0,ExtBa=11.33
27/09/2020,14:55:26,TEMP=25.9,BA=5.36,STAT.A=1.0,ExtBa=11.33
27/09/2020,14:57:37,TEMP=25.9,BA=5.36,STAT.A=1.0,ExtBa=11.33
27/09/2020,15:00:21,TEMP=25.8,BA=5.40,STAT.D=1.0,ExtBa=11.33
27/09/2020,15:02:18,TEMP=25.8,BA=5.40,STAT.B=1.0,ExtBa=11.32
27/09/2020,15:12:29,TEMP=25.3,BA=5.32,STAT.A=1.0,ExtBa=11.31
27/09/2020,15:15:21,TEMP=25.3,BA=5.32,STAT.D=1.0,ExtBa=11.32
27/09/2020,15:17:17,TEMP=25.4,BA=5.32,STAT.A=1.0,ExtBa=11.31
27/09/2020,15:21:13,TEMP=25.1,BA=5.32,STAT.A=1.0,ExtBa=11.33
27/09/2020,15:24:21,TEMP=25.1,BA=5.32,STAT.D=1.0,ExtBa=11.32
27/09/2020,15:26:16,TEMP=25.2,BA=5.32,STAT.A=1.0,ExtBa=11.31
27/09/2020,15:29:23,TEMP=24.9,BA=5.32,STAT.A=1.0,ExtBa=11.32
27/09/2020,15:32:33,TEMP=24.8,BA=5.32,STAT.A=1.0,ExtBa=11.32